Bucharest, Romania

9:20 AM EEST on June 20, 2018 (GMT +0300)
Baneasa

Weather History for LRBS - June, 2018

Change the Weather History Date:

Thursday, June 14, 2018

  Actual Average Record
Temperature  
Mean Temperature 74 °F -  
Max Temperature 85 °F 82 °F 95 °F (2000)
Min Temperature 63 °F 58 °F 55 °F (2006)
Cooling Degree Days 9    
Growing Degree Days 24 (Base 50)    
Moisture  
Dew Point 66 °F    
Average Humidity 82    
Maximum Humidity 100    
Minimum Humidity 43    
Precipitation  
Precipitation 0.79 in 0.09 in - ()
Sea Level Pressure  
Sea Level Pressure 29.67 in    
Wind  
Wind Speed 5 mph ()    
Max Wind Speed 13 mph    
Max Gust Speed -    
Visibility 5.7 miles    
Events Rain , Thunderstorm    
Averages and records for this station are not official NWS values.
T = Trace of Precipitation, MM = Missing Value Source: Averaged Metar Reports

Daily Weather History Graph

Daily Weather History Graph

Search for Another Location

Airport or City:

Astronomy

Jun. 14, 2018 Rise Set
Actual Time 5:30 AM EEST 9:01 PM EEST
Civil Twilight 4:53 AM EEST 9:38 PM EEST
Nautical Twilight 4:04 AM EEST 10:26 PM EEST
Astronomical Twilight 3:02 AM EEST 11:29 PM EEST
Moon 6:11 AM EEST (6/14) 9:39 PM EEST (6/14)
Length of Visible Light 16h 44m
Length of Day
15h 31m
New Moon, 0% of the Moon is Illuminated
Jun 14
New Moon
Jun 20
First Quarter
Jun 28
Full
Jul 6
Last Quarter
Jul 13
New

Hourly Weather History & Observations

Time (EEST) Temp. Heat Index Dew Point Humidity Pressure Visibility Wind Dir Wind Speed Gust Speed Precip Events Conditions
12:00 AM 77 °F - 65 °F 58% 29.62 in 6 mi East 4.5 mph - -   Scattered Clouds
12:00 AM 78.8 °F - 62.6 °F 57% 29.62 in 6.2 mi East 8.1 mph - N/A Thunderstorm Thunderstorm
12:30 AM 77.0 °F - 62.6 °F 61% 29.62 in 6.2 mi East 6.9 mph - N/A Thunderstorm Thunderstorm
1:00 AM 77.0 °F - 62.6 °F 61% 29.68 in 6.2 mi SW 9.2 mph - N/A Thunderstorm Thunderstorm
1:30 AM 69.8 °F - 66.2 °F 88% 29.68 in 4.3 mi WNW 9.2 mph - N/A Rain , Thunderstorm Light Thunderstorms and Rain
2:00 AM 68.0 °F - 66.2 °F 94% 29.65 in 6.2 mi WNW 8.1 mph - N/A Rain , Thunderstorm Light Thunderstorms and Rain
2:30 AM 68.0 °F - 66.2 °F 94% 29.65 in 5.0 mi Variable 5.8 mph - N/A Rain , Thunderstorm Light Thunderstorms and Rain
3:00 AM 66 °F - 66 °F 98% 29.66 in 6 mi West 4.5 mph - - Thunderstorm Thunderstorm
3:00 AM 68.0 °F - 68.0 °F 100% 29.65 in 6.2 mi NW 6.9 mph - N/A Rain , Thunderstorm Light Thunderstorms and Rain
3:30 AM 68.0 °F - 66.2 °F 94% 29.62 in 6.2 mi NNW 5.8 mph - N/A   Partly Cloudy
4:00 AM 66 °F - 66 °F 98% 29.63 in 6 mi North 4.5 mph - - Thunderstorm Light Thunderstorm
4:30 AM 66.2 °F - 66.2 °F 100% 29.62 in - ENE 6.9 mph - N/A   Partly Cloudy
5:00 AM 65 °F - 65 °F 100% 29.63 in 6 mi East 4.5 mph - -   Scattered Clouds
5:00 AM 66.2 °F - 66.2 °F 100% 29.62 in - Variable 2.3 mph - N/A   Clear
5:30 AM 66.2 °F - 66.2 °F 100% 29.62 in - East 3.5 mph - N/A   Clear
6:00 AM 64 °F - 64 °F 99% 29.62 in 6 mi ESE 2.2 mph - -   Partly Cloudy
6:00 AM 68.0 °F - 66.2 °F 94% 29.65 in - Variable 1.2 mph - N/A   Clear
6:30 AM 68.0 °F - 66.2 °F 94% 29.65 in - WSW 4.6 mph - N/A   Clear
7:00 AM 66 °F - 65 °F 98% 29.65 in 6 mi West 2.2 mph - -   Partly Cloudy
7:00 AM 68.0 °F - 68.0 °F 100% 29.65 in 3.1 mi SW 5.8 mph - N/A   Mostly Cloudy
7:30 AM 68.0 °F - 68.0 °F 100% 29.68 in 3.7 mi WSW 8.1 mph - N/A   Mostly Cloudy
8:00 AM 67 °F - 66 °F 96% 29.68 in 2 mi WSW 6.7 mph - -   Mist
8:00 AM 68.0 °F - 68.0 °F 100% 29.68 in 3.1 mi West 6.9 mph - N/A   Mostly Cloudy
9:00 AM 67 °F - 66 °F 94% 29.68 in 6 mi WNW 2.2 mph - -   Partly Cloudy
9:00 AM 68.0 °F - 68.0 °F 100% 29.71 in 6.2 mi NW 3.5 mph - N/A   Mostly Cloudy
9:30 AM 69.8 °F - 68.0 °F 94% 29.71 in 6.2 mi North 3.5 mph - N/A   Partly Cloudy
10:00 AM 69 °F - 65 °F 84% 29.69 in 6 mi NNW 2.2 mph - -   Partly Cloudy
10:00 AM 71.6 °F - 66.2 °F 83% 29.71 in 6.2 mi NNW 3.5 mph - N/A   Partly Cloudy
10:30 AM 73.4 °F - 66.2 °F 78% 29.71 in 6.2 mi NNE 3.5 mph - N/A   Partly Cloudy
11:00 AM 74 °F - 66 °F 69% 29.69 in 6 mi NNE 4.5 mph - -   Mostly Cloudy
11:00 AM 75.2 °F - 66.2 °F 73% 29.71 in 6.2 mi NNE 4.6 mph - N/A   Partly Cloudy
11:30 AM 77.0 °F - 64.4 °F 65% 29.71 in 6.2 mi Variable 3.5 mph - N/A   Partly Cloudy
12:00 PM 77 °F - 66 °F 60% 29.69 in 6 mi NNE 2.2 mph - -   Partly Cloudy
12:00 PM 78.8 °F - 64.4 °F 61% 29.68 in - East 3.5 mph - N/A   Clear
12:30 PM 78.8 °F - 64.4 °F 61% 29.68 in - ENE 4.6 mph - N/A   Clear
1:00 PM 79 °F - 65 °F 54% 29.68 in 6 mi NE 2.2 mph - -   Partly Cloudy
1:00 PM 80.6 °F 82.3 °F 64.4 °F 58% 29.68 in - Variable 3.5 mph - N/A   Clear
1:30 PM 80.6 °F 82.7 °F 66.2 °F 61% 29.68 in - Variable 3.5 mph - N/A   Clear
2:00 PM 81 °F - 65 °F 50% 29.68 in 6 mi SSE 2.2 mph - -   Mostly Cloudy
2:00 PM 82.4 °F 83.9 °F 64.4 °F 54% 29.68 in - ESE 4.6 mph - N/A   Clear
3:00 PM 84 °F - 65 °F 43% 29.66 in 6 mi Calm Calm - -   Partly Cloudy
3:00 PM 84.2 °F 85.0 °F 62.6 °F 48% 29.65 in 6.2 mi Variable 3.5 mph - N/A Thunderstorm Partly Cloudy
3:30 PM 82.4 °F 83.9 °F 64.4 °F 54% 29.65 in 6.2 mi West 3.5 mph - N/A Rain , Thunderstorm Light Thunderstorms and Rain
4:00 PM 81 °F - 67 °F 55% 29.65 in 6 mi West 4.5 mph - - Rain , Thunderstorm Thunderstorms and Rain
4:00 PM 73.4 °F - 62.6 °F 69% 29.65 in 6.2 mi North 11.5 mph - N/A Rain , Thunderstorm Light Thunderstorms and Rain
4:30 PM 71.6 °F - 69.8 °F 94% 29.65 in 3.1 mi NE 12.7 mph - N/A Rain , Thunderstorm Light Thunderstorms and Rain
5:00 PM 69 °F - 68 °F 97% 29.65 in 6 mi ENE 4.5 mph - - Rain , Thunderstorm Thunderstorms and Rain
5:00 PM 71.6 °F - 62.6 °F 73% 29.65 in 3.1 mi East 10.4 mph - N/A Rain , Thunderstorm Light Thunderstorms and Rain
5:30 PM 71.6 °F - 66.2 °F 83% 29.65 in 6.2 mi WNW 6.9 mph - N/A Thunderstorm Partly Cloudy
6:00 PM 69 °F - 67 °F 92% 29.66 in 6 mi WNW 4.5 mph - - Thunderstorm Thunderstorm
6:00 PM 73.4 °F - 66.2 °F 78% 29.68 in 6.2 mi North 4.6 mph - N/A Thunderstorm Partly Cloudy
6:30 PM 73.4 °F - 68.0 °F 83% 29.68 in 6.2 mi East 6.9 mph - N/A Thunderstorm Scattered Clouds
7:00 PM 71 °F - 68 °F 88% 29.67 in 6 mi ESE 4.5 mph - - Thunderstorm Thunderstorm
7:00 PM 73.4 °F - 68.0 °F 83% 29.65 in 6.2 mi NW 3.5 mph - N/A   Scattered Clouds
7:30 PM 73.4 °F - 68.0 °F 83% 29.65 in 6.2 mi WNW 5.8 mph - N/A Rain , Thunderstorm Light Rain Showers
8:00 PM 71 °F - 68 °F 89% 29.66 in 6 mi NW 2.2 mph - - Rain , Thunderstorm Thunderstorms and Rain
8:00 PM 73.4 °F - 69.8 °F 88% 29.68 in 6.2 mi Variable 1.2 mph - N/A Rain Light Rain Showers
8:30 PM 71.6 °F - 69.8 °F 94% 29.71 in 6.2 mi NNE 3.5 mph - N/A Rain Light Rain Showers
9:00 PM 69 °F - 68 °F 96% 29.70 in 6 mi NNE 2.2 mph - - Rain Light Rain
9:00 PM 69.8 °F - 68.0 °F 94% 29.71 in 6.2 mi Variable 2.3 mph - N/A Rain Light Rain Showers
9:30 PM 69.8 °F - 68.0 °F 94% 29.68 in 6.2 mi NNW 3.5 mph - N/A   Scattered Clouds
10:00 PM 68 °F - 66 °F 91% 29.69 in 6 mi North 4.5 mph - - Rain Light Rain Showers
10:00 PM 69.8 °F - 68.0 °F 94% 29.71 in 6.2 mi SW 3.5 mph - N/A   Partly Cloudy
10:30 PM 69.8 °F - 68.0 °F 94% 29.71 in - Variable 2.3 mph - N/A   Clear
11:00 PM 67 °F - 65 °F 93% 29.71 in 6 mi NNW 2.2 mph - - Rain Light Rain Showers
11:00 PM 68.0 °F - 64.4 °F 88% 29.71 in - Variable 1.2 mph - N/A   Clear
11:30 PM 68.0 °F - 64.4 °F 88% 29.71 in - Variable 1.2 mph - N/A   Clear